Location: Bergnerzell
(49.1816°N, 10.2565°E)
Time: 01:54:06
(UTC+00:00)

Cosmos 1892 - Pass Details

Date: 23 May 2024
Orbit: 455 x 468 km, 82.5° (Epoch: 19 June)

Event Time Altitude Azimuth Distance (km) Brightness Sun altitude
Exits shadow 02:42:04 - 192° (SSW) 2,123 5.3 -6.5°
Reaches altitude 10° 02:43:18 10° 193° (SSW) 1,601 4.7 -6.3°
Maximum altitude 02:46:47 78° 280° (W) 475 2.4 -5.9°
Drops below altitude 10° 02:50:18 10° 7° (N) 1,610 6.0 -5.5°
Sets 02:52:23 0° 9° (N) 2,488 7.0 -5.2°
